Tracking 31027 objects as of 19-Jul-2025
HD Live streaming from Space Station
objects crossing your sky now

STARLINK-33584

Track STARLINK-33584 now!
10-day predictions
STARLINK-33584 is classified as:


NORAD ID: 62761
Int'l Code: 2025-015D
Perigee: 481.5 km
Apogee: 483.3 km
Inclination: 53.2 °
Period: 94.1 minutes
Semi major axis: 6853 km
RCS: Unknown
Launch date: January 21, 2025
Source: United States (US)
Launch site: AIR FORCE WESTERN TEST RANGE (AFWTR)
Your satellite tracking list
FENGYUN 1C DEB
Track 1 satellite(s)




NASA's NSSDC Master Catalog

Two Line Element Set (TLE):
1 62761U 25015D   25197.78191175  .00017437  00000-0  59971-3 0  9994
2 62761  53.1618 338.1549 0001346  84.6349 275.4805 15.30187010 28365
Source of the keplerian elements: AFSPC